QPF
0.06 0.05 0.05 0.06 0.07 0.06 0.05 0.05 0.06 0.05 0.04 0.05 0.05 0.04 0.07 0.11 0.09 0.06 0.05 0.04 0.03 0.04 0.04 0.03 0.03 0.03 0.03 0.03 0.03 0.03 0.03 0.02 0.02 0.02 0.02 0.03 0.03 0.04 0.05 0.05 0.06 0.06 0.05
0.04 0.02 0.02 0.03 0.04 0.05 0.04 0.04 0.03 0.04 0.04 0.03 0.03 0.03 0.04 0.06 0.05 0.05 0.03 0.03 0.03 0.04 0.04 0.05 0.05 0.05 0.04 0.04 0.04 0.03 0.03 0.02 0.02 0.02 0.03 0.03 0.03 0.03 0.04 0.04 0.05 0.05 0.05
0.03 0.01 0.01 0.02 0.02 0.03 0.05 0.04 0.03 0.03 0.04 0.03 0.02 0.03 0.04 0.04 0.03 0.04 0.04 0.03 0.02 0.03 0.04 0.03 0.04 0.04 0.03 0.03 0.03 0.03 0.03 0.02 0.02 0.02 0.04 0.04 0.03 0.02 0.02 0.03 0.05 0.05 0.04
0.02 0.02 0.01 0.01 0.01 0.01 0.03 0.04 0.03 0.03 0.04 0.03 0.03 0.04 0.03 0.03 0.02 0.02 0.04 0.04 0.03 0.02 0.04 0.05 0.04 0.05 0.05 0.03 0.03 0.03 0.03 0.03 0.03 0.04 0.04 0.04 0.04 0.04 0.04 0.05 0.07 0.07 0.04
0.02 0.01 0.01 0.00 0.00 0.01 0.02 0.04 0.04 0.04 0.03 0.02 0.03 0.04 0.03 0.04 0.03 0.06 0.04 0.03 0.04 0.04 0.05 0.05 0.04 0.03 0.03 0.03 0.02 0.03 0.03 0.04 0.04 0.04 0.04 0.04 0.05 0.06 0.06 0.06 0.07 0.07 0.05
0.01 0.01 0.01 0.01 0.01 0.01 0.02 0.02 0.04 0.04 0.02 0.02 0.03 0.04 0.03 0.03 0.03 0.04 0.03 0.04 0.03 0.03 0.04 0.04 0.04 0.03 0.03 0.03 0.03 0.04 0.04 0.05 0.05 0.04 0.04 0.03 0.05 0.06 0.07 0.06 0.07 0.08 0.07
0.02 0.03 0.02 0.01 0.01 0.01 0.01 0.01 0.01 0.02 0.02 0.03 0.04 0.04 0.04 0.03 0.03 0.03 0.04 0.04 0.04 0.03 0.05 0.05 0.05 0.04 0.03 0.04 0.05 0.04 0.05 0.05 0.05 0.06 0.06 0.04 0.02 0.03 0.03 0.04 0.05 0.06 0.08
0.04 0.04 0.03 0.01 0.01 0.01 0.01 0.00 0.01 0.02 0.04 0.04 0.04 0.04 0.05 0.05 0.05 0.04 0.04 0.05 0.04 0.04 0.05 0.06 0.06 0.06 0.06 0.07 0.07 0.06 0.04 0.04 0.04 0.05 0.05 0.03 0.02 0.02 0.02 0.02 0.03 0.03 0.03
0.06 0.05 0.03 0.02 0.02 0.01 0.01 0.01 0.02 0.03 0.04 0.03 0.03 0.05 0.04 0.05 0.05 0.04 0.03 0.05 0.06 0.07 0.06 0.06 0.07 0.11 0.12 0.08 0.08 0.08 0.06 0.04 0.04 0.04 0.04 0.04 0.03 0.02 0.01 0.02 0.02 0.02 0.03
0.05 0.05 0.02 0.02 0.03 0.03 0.02 0.03 0.02 0.02 0.03 0.03 0.02 0.04 0.04 0.05 0.04 0.04 0.04 0.04 0.06 0.10 0.10 0.08 0.09 0.12 0.15 0.10 0.10 0.08 0.07 0.05 0.03 0.03 0.04 0.04 0.05 0.04 0.02 0.01 0.02 0.03 0.03
0.03 0.02 0.02 0.01 0.02 0.02 0.03 0.03 0.03 0.02 0.03 0.03 0.02 0.03 0.03 0.05 0.04 0.03 0.04 0.05 0.05 0.05 0.06 0.10 0.10 0.08 0.10 0.14 0.15 0.12 0.09 0.06 0.04 0.04 0.04 0.05 0.06 0.05 0.03 0.02 0.03 0.03 0.03
0.01 0.01 0.01 0.01 0.03 0.04 0.04 0.04 0.04 0.04 0.03 0.02 0.02 0.02 0.03 0.04 0.03 0.02 0.01 0.01 0.02 0.02 0.02 0.03 0.05 0.07 0.09 0.13 0.17 0.12 0.10 0.10 0.06 0.04 0.04 0.03 0.03 0.05 0.05 0.04 0.04 0.04 0.03
0.01 0.01 0.02 0.02 0.02 0.02 0.02 0.03 0.04 0.06 0.06 0.03 0.02 0.02 0.02 0.03 0.03 0.03 0.03 0.02 0.01 0.01 0.02 0.03 0.05 0.08 0.10 0.10 0.12 0.12 0.10 0.08 0.07 0.05 0.05 0.04 0.03 0.03 0.05 0.06 0.05 0.03 0.03
0.02 0.01 0.02 0.02 0.02 0.02 0.02 0.02 0.02 0.03 0.06 0.06 0.03 0.02 0.02 0.03 0.03 0.04 0.04 0.03 0.02 0.02 0.02 0.02 0.03 0.04 0.05 0.07 0.12 0.13 0.10 0.09 0.08 0.06 0.05 0.03 0.03 0.02 0.02 0.03 0.05 0.04 0.04
0.02 0.02 0.02 0.02 0.02 0.02 0.02 0.03 0.02 0.02 0.03 0.04 0.04 0.02 0.02 0.02 0.02 0.04 0.03 0.03 0.04 0.03 0.02 0.02 0.03 0.04 0.03 0.04 0.07 0.07 0.09 0.10 0.07 0.05 0.03 0.02 0.02 0.02 0.02 0.01 0.02 0.03 0.03
0.01 0.02 0.01 0.02 0.03 0.03 0.03 0.03 0.03 0.02 0.02 0.02 0.02 0.02 0.02 0.02 0.02 0.04 0.04 0.04 0.05 0.05 0.03 0.02 0.04 0.05 0.04 0.07 0.06 0.03 0.06 0.09 0.08 0.06 0.04 0.03 0.02 0.02 0.01 0.01 0.02 0.03 0.03
0.01 0.01 0.02 0.03 0.03 0.03 0.03 0.03 0.03 0.02 0.01 0.01 0.01 0.01 0.01 0.01 0.02 0.06 0.07 0.05 0.04 0.05 0.04 0.03 0.03 0.03 0.04 0.06 0.06 0.03 0.03 0.04 0.05 0.06 0.06 0.06 0.05 0.03 0.02 0.02 0.03 0.03 0.03
0.02 0.03 0.03 0.03 0.02 0.02 0.03 0.03 0.02 0.03 0.01 0.01 0.02 0.02 0.01 0.01 0.01 0.04 0.08 0.06 0.06 0.07 0.05 0.05 0.03 0.03 0.03 0.04 0.05 0.04 0.03 0.03 0.04 0.04 0.04 0.03 0.04 0.05 0.04 0.04 0.03 0.03 0.02
0.02 0.03 0.03 0.04 0.03 0.03 0.03 0.02 0.02 0.03 0.01 0.01 0.01 0.01 0.02 0.02 0.01 0.02 0.05 0.06 0.05 0.05 0.05 0.05 0.04 0.04 0.04 0.03 0.03 0.03 0.03 0.04 0.05 0.07 0.08 0.06 0.04 0.04 0.05 0.05 0.04 0.03 0.02
0.02 0.02 0.02 0.03 0.03 0.04 0.04 0.03 0.04 0.03 0.01 0.01 0.01 0.01 0.02 0.02 0.01 0.02 0.03 0.02 0.02 0.03 0.04 0.04 0.04 0.05 0.05 0.03 0.03 0.03 0.04 0.04 0.05 0.06 0.06 0.05 0.05 0.06 0.06 0.06 0.05 0.03 0.02
0.01 0.02 0.03 0.03 0.04 0.04 0.04 0.05 0.05 0.03 0.02 0.01 0.01 0.01 0.01 0.01 0.02 0.03 0.03 0.01 0.02 0.03 0.03 0.04 0.05 0.06 0.06 0.04 0.03 0.04 0.05 0.05 0.05 0.05 0.05 0.05 0.05 0.05 0.05 0.06 0.05 0.04 0.03
0.02 0.02 0.03 0.04 0.04 0.04 0.04 0.05 0.05 0.04 0.02 0.02 0.01 0.02 0.02 0.02 0.02 0.03 0.03 0.03 0.03 0.02 0.02 0.03 0.04 0.04 0.03 0.04 0.05 0.05 0.05 0.07 0.07 0.05 0.05 0.05 0.05 0.04 0.04 0.04 0.05 0.04 0.04
0.02 0.03 0.04 0.04 0.05 0.06 0.06 0.06 0.06 0.05 0.05 0.05 0.05 0.05 0.04 0.03 0.04 0.03 0.02 0.02 0.03 0.03 0.03 0.03 0.02 0.02 0.02 0.02 0.04 0.04 0.05 0.05 0.04 0.03 0.04 0.04 0.04 0.04 0.04 0.04 0.05 0.04 0.03
0.02 0.02 0.02 0.02 0.03 0.04 0.05 0.05 0.05 0.05 0.05 0.06 0.07 0.07 0.07 0.06 0.05 0.04 0.03 0.03 0.03 0.03 0.03 0.03 0.02 0.02 0.02 0.03 0.04 0.04 0.04 0.05 0.06 0.05 0.05 0.05 0.04 0.04 0.04 0.04 0.04 0.04 0.03
0.02 0.02 0.01 0.02 0.02 0.03 0.04 0.04 0.04 0.05 0.05 0.05 0.05 0.04 0.05 0.05 0.05 0.05 0.05 0.05 0.04 0.03 0.02 0.04 0.03 0.03 0.03 0.03 0.03 0.03 0.03 0.04 0.04 0.04 0.04 0.05 0.05 0.05 0.05 0.05 0.06 0.06 0.06
0.03 0.02 0.03 0.04 0.05 0.04 0.04 0.04 0.05 0.04 0.05 0.05 0.06 0.06 0.05 0.05 0.05 0.05 0.04 0.04 0.04 0.04 0.04 0.04 0.04 0.03 0.03 0.03 0.03 0.02 0.02 0.02 0.04 0.04 0.04 0.06 0.07 0.08 0.09 0.09 0.08 0.08 0.06
MSLP
1013.08 1012.93 1012.72 1012.47 1012.20 1011.95 1011.76 1011.65 1011.61 1011.66 1011.78 1011.94 1012.12 1012.32 1012.53 1012.73 1012.94 1013.17 1013.39 1013.63 1013.85 1014.04 1014.18 1014.23 1014.19 1014.04 1013.78 1013.42 1012.99 1012.52 1012.05 1011.62 1011.27 1011.03 1010.92 1010.94 1011.08 1011.31 1011.61 1011.95 1012.30 1012.64 1012.96
1012.81 1012.70 1012.52 1012.30 1012.05 1011.83 1011.65 1011.55 1011.54 1011.63 1011.81 1012.05 1012.33 1012.63 1012.93 1013.21 1013.47 1013.71 1013.94 1014.15 1014.34 1014.51 1014.63 1014.68 1014.65 1014.51 1014.27 1013.92 1013.49 1013.00 1012.48 1011.99 1011.55 1011.22 1010.99 1010.89 1010.92 1011.05 1011.26 1011.53 1011.84 1012.16 1012.49
1012.58 1012.53 1012.41 1012.25 1012.06 1011.87 1011.73 1011.65 1011.67 1011.79 1012.01 1012.31 1012.66 1013.03 1013.40 1013.74 1014.04 1014.30 1014.51 1014.69 1014.85 1014.98 1015.07 1015.12 1015.10 1015.00 1014.80 1014.49 1014.09 1013.62 1013.10 1012.57 1012.07 1011.64 1011.31 1011.09 1010.98 1010.99 1011.09 1011.28 1011.53 1011.82 1012.14
1012.45 1012.46 1012.42 1012.34 1012.22 1012.09 1011.99 1011.93 1011.97 1012.10 1012.34 1012.67 1013.07 1013.49 1013.91 1014.30 1014.63 1014.89 1015.09 1015.25 1015.37 1015.46 1015.53 1015.57 1015.56 1015.50 1015.34 1015.10 1014.76 1014.33 1013.83 1013.30 1012.76 1012.27 1011.84 1011.51 1011.28 1011.16 1011.15 1011.24 1011.41 1011.65 1011.95
1012.45 1012.52 1012.56 1012.56 1012.52 1012.46 1012.39 1012.36 1012.39 1012.51 1012.75 1013.08 1013.49 1013.95 1014.40 1014.83 1015.19 1015.47 1015.67 1015.82 1015.91 1015.97 1016.02 1016.05 1016.05 1016.01 1015.91 1015.72 1015.44 1015.07 1014.62 1014.11 1013.57 1013.04 1012.55 1012.12 1011.79 1011.56 1011.44 1011.43 1011.52 1011.70 1011.96
1012.57 1012.69 1012.81 1012.89 1012.92 1012.92 1012.88 1012.86 1012.87 1012.97 1013.18 1013.49 1013.89 1014.35 1014.84 1015.30 1015.70 1016.01 1016.24 1016.39 1016.47 1016.52 1016.55 1016.56 1016.57 1016.54 1016.47 1016.33 1016.11 1015.80 1015.40 1014.93 1014.41 1013.88 1013.36 1012.89 1012.49 1012.18 1011.97 1011.87 1011.88 1011.98 1012.18
1012.79 1012.96 1013.13 1013.28 1013.38 1013.42 1013.41 1013.38 1013.37 1013.42 1013.58 1013.84 1014.22 1014.68 1015.19 1015.69 1016.14 1016.50 1016.77 1016.95 1017.05 1017.10 1017.12 1017.12 1017.11 1017.08 1017.02 1016.90 1016.72 1016.46 1016.11 1015.70 1015.22 1014.72 1014.22 1013.74 1013.32 1012.96 1012.69 1012.53 1012.46 1012.49 1012.60
1013.09 1013.28 1013.50 1013.70 1013.85 1013.92 1013.92 1013.88 1013.83 1013.83 1013.93 1014.14 1014.48 1014.93 1015.44 1015.98 1016.48 1016.91 1017.25 1017.47 1017.61 1017.68 1017.69 1017.68 1017.64 1017.60 1017.52 1017.41 1017.24 1017.01 1016.72 1016.36 1015.95 1015.51 1015.06 1014.62 1014.21 1013.85 1013.56 1013.35 1013.22 1013.17 1013.20
1013.39 1013.62 1013.87 1014.12 1014.30 1014.39 1014.40 1014.34 1014.26 1014.20 1014.23 1014.39 1014.68 1015.10 1015.62 1016.18 1016.73 1017.23 1017.62 1017.92 1018.10 1018.20 1018.22 1018.19 1018.14 1018.06 1017.95 1017.82 1017.65 1017.44 1017.18 1016.88 1016.54 1016.18 1015.81 1015.45 1015.10 1014.78 1014.50 1014.27 1014.09 1013.98 1013.91
1013.66 1013.93 1014.22 1014.50 1014.71 1014.83 1014.85 1014.78 1014.66 1014.56 1014.53 1014.62 1014.86 1015.24 1015.74 1016.30 1016.89 1017.43 1017.89 1018.24 1018.47 1018.60 1018.64 1018.61 1018.54 1018.42 1018.28 1018.12 1017.94 1017.73 1017.50 1017.25 1016.98 1016.71 1016.44 1016.17 1015.90 1015.65 1015.41 1015.19 1014.99 1014.82 1014.67
1013.87 1014.18 1014.51 1014.83 1015.08 1015.23 1015.26 1015.20 1015.07 1014.93 1014.86 1014.89 1015.07 1015.39 1015.85 1016.39 1016.97 1017.53 1018.02 1018.41 1018.69 1018.85 1018.92 1018.90 1018.81 1018.67 1018.51 1018.32 1018.11 1017.90 1017.69 1017.48 1017.28 1017.09 1016.91 1016.74 1016.57 1016.40 1016.22 1016.02 1015.82 1015.61 1015.40
1013.99 1014.36 1014.74 1015.10 1015.40 1015.59 1015.66 1015.62 1015.50 1015.36 1015.25 1015.23 1015.34 1015.60 1015.98 1016.47 1017.01 1017.54 1018.03 1018.44 1018.74 1018.94 1019.03 1019.03 1018.95 1018.81 1018.63 1018.42 1018.20 1017.98 1017.78 1017.60 1017.44 1017.32 1017.22 1017.14 1017.06 1016.96 1016.84 1016.69 1016.50 1016.28 1016.03
1014.04 1014.46 1014.90 1015.31 1015.66 1015.90 1016.03 1016.04 1015.96 1015.83 1015.71 1015.66 1015.71 1015.89 1016.19 1016.58 1017.04 1017.52 1017.97 1018.36 1018.67 1018.89 1019.01 1019.03 1018.98 1018.86 1018.69 1018.48 1018.25 1018.03 1017.82 1017.64 1017.51 1017.43 1017.38 1017.36 1017.34 1017.31 1017.25 1017.14 1016.98 1016.76 1016.51
1014.03 1014.50 1014.98 1015.44 1015.84 1016.16 1016.35 1016.43 1016.42 1016.33 1016.23 1016.17 1016.17 1016.27 1016.48 1016.77 1017.12 1017.51 1017.89 1018.24 1018.53 1018.75 1018.90 1018.96 1018.95 1018.86 1018.72 1018.53 1018.30 1018.08 1017.86 1017.68 1017.54 1017.46 1017.42 1017.42 1017.44 1017.45 1017.42 1017.35 1017.22 1017.04 1016.80
1013.98 1014.48 1014.99 1015.49 1015.94 1016.32 1016.60 1016.77 1016.84 1016.82 1016.77 1016.71 1016.70 1016.74 1016.85 1017.03 1017.27 1017.55 1017.84 1018.12 1018.38 1018.60 1018.77 1018.87 1018.91 1018.87 1018.77 1018.61 1018.41 1018.18 1017.94 1017.73 1017.57 1017.45 1017.39 1017.38 1017.39 1017.41 1017.41 1017.36 1017.26 1017.11 1016.92
1013.92 1014.42 1014.93 1015.45 1015.94 1016.38 1016.74 1017.01 1017.17 1017.25 1017.27 1017.25 1017.23 1017.24 1017.28 1017.37 1017.50 1017.67 1017.87 1018.08 1018.29 1018.50 1018.68 1018.82 1018.91 1018.94 1018.89 1018.77 1018.58 1018.35 1018.10 1017.85 1017.64 1017.47 1017.35 1017.29 1017.27 1017.26 1017.25 1017.21 1017.14 1017.02 1016.87
1013.86 1014.33 1014.82 1015.33 1015.84 1016.33 1016.76 1017.12 1017.39 1017.57 1017.67 1017.71 1017.72 1017.72 1017.72 1017.74 1017.79 1017.87 1017.98 1018.13 1018.29 1018.48 1018.67 1018.84 1018.98 1019.06 1019.06 1018.98 1018.83 1018.60 1018.34 1018.05 1017.77 1017.54 1017.35 1017.22 1017.13 1017.07 1017.03 1016.99 1016.92 1016.82 1016.70
1013.82 1014.22 1014.67 1015.16 1015.67 1016.19 1016.68 1017.11 1017.46 1017.74 1017.93 1018.05 1018.11 1018.13 1018.12 1018.11 1018.10 1018.12 1018.16 1018.25 1018.38 1018.54 1018.73 1018.92 1019.09 1019.22 1019.27 1019.23 1019.10 1018.89 1018.61 1018.29 1017.97 1017.66 1017.40 1017.19 1017.04 1016.92 1016.83 1016.75 1016.67 1016.58 1016.47
1013.78 1014.11 1014.51 1014.97 1015.47 1016.00 1016.51 1017.00 1017.42 1017.77 1018.04 1018.22 1018.34 1018.40 1018.42 1018.40 1018.38 1018.36 1018.36 1018.40 1018.50 1018.63 1018.81 1019.01 1019.20 1019.36 1019.45 1019.45 1019.35 1019.15 1018.88 1018.55 1018.19 1017.83 1017.51 1017.24 1017.01 1016.83 1016.69 1016.57 1016.45 1016.34 1016.22
1013.74 1014.02 1014.38 1014.80 1015.28 1015.80 1016.32 1016.83 1017.28 1017.68 1018.00 1018.25 1018.42 1018.53 1018.58 1018.59 1018.57 1018.54 1018.52 1018.54 1018.60 1018.71 1018.87 1019.06 1019.25 1019.42 1019.53 1019.56 1019.49 1019.32 1019.07 1018.74 1018.38 1018.00 1017.65 1017.33 1017.05 1016.82 1016.62 1016.45 1016.29 1016.13 1015.98
1013.68 1013.94 1014.27 1014.68 1015.14 1015.64 1016.15 1016.65 1017.11 1017.51 1017.86 1018.14 1018.36 1018.50 1018.60 1018.63 1018.64 1018.62 1018.60 1018.60 1018.64 1018.72 1018.85 1019.01 1019.18 1019.34 1019.46 1019.51 1019.47 1019.34 1019.11 1018.82 1018.47 1018.11 1017.75 1017.42 1017.12 1016.85 1016.61 1016.39 1016.18 1015.97 1015.77
1013.58 1013.86 1014.21 1014.61 1015.07 1015.55 1016.03 1016.50 1016.93 1017.32 1017.66 1017.94 1018.18 1018.36 1018.48 1018.56 1018.59 1018.59 1018.57 1018.56 1018.58 1018.62 1018.71 1018.83 1018.97 1019.10 1019.21 1019.27 1019.25 1019.15 1018.97 1018.72 1018.42 1018.10 1017.77 1017.45 1017.15 1016.88 1016.62 1016.36 1016.10 1015.84 1015.58
1013.43 1013.76 1014.15 1014.59 1015.05 1015.52 1015.97 1016.39 1016.78 1017.12 1017.43 1017.70 1017.94 1018.13 1018.28 1018.38 1018.44 1018.46 1018.45 1018.43 1018.41 1018.42 1018.45 1018.52 1018.61 1018.70 1018.79 1018.83 1018.83 1018.76 1018.62 1018.43 1018.19 1017.93 1017.65 1017.37 1017.10 1016.84 1016.58 1016.30 1016.02 1015.71 1015.39
1013.19 1013.61 1014.08 1014.56 1015.05 1015.51 1015.93 1016.31 1016.65 1016.94 1017.21 1017.45 1017.68 1017.87 1018.04 1018.16 1018.24 1018.27 1018.26 1018.22 1018.18 1018.13 1018.11 1018.11 1018.13 1018.18 1018.22 1018.25 1018.24 1018.19 1018.10 1017.96 1017.78 1017.58 1017.37 1017.15 1016.93 1016.70 1016.45 1016.18 1015.88 1015.55 1015.19
1012.86 1013.38 1013.93 1014.48 1015.00 1015.47 1015.88 1016.22 1016.51 1016.77 1017.00 1017.22 1017.43 1017.62 1017.80 1017.93 1018.02 1018.06 1018.04 1017.99 1017.90 1017.81 1017.72 1017.65 1017.61 1017.59 1017.58 1017.58 1017.56 1017.52 1017.45 1017.35 1017.22 1017.08 1016.93 1016.77 1016.60 1016.42 1016.21 1015.97 1015.68 1015.34 1014.96
1012.43 1013.05 1013.68 1014.29 1014.85 1015.33 1015.74 1016.07 1016.34 1016.58 1016.79 1016.99 1017.20 1017.40 1017.58 1017.72 1017.82 1017.85 1017.83 1017.74 1017.62 1017.48 1017.33 1017.19 1017.08 1017.00 1016.94 1016.90 1016.85 1016.80 1016.74 1016.66 1016.58 1016.48 1016.38 1016.27 1016.16 1016.02 1015.86 1015.65 1015.38 1015.06 1014.68
Thickness
5776 5775 5774 5773 5772 5771 5771 5770 5769 5768 5767 5767 5766 5765 5763 5762 5760 5759 5758 5757 5755 5754 5752 5751 5750 5749 5747 5745 5744 5743 5742 5741 5740 5739 5738 5736 5735 5734 5733 5732 5730 5729 5729
5777 5776 5774 5773 5772 5772 5771 5770 5769 5768 5768 5767 5766 5765 5764 5762 5760 5759 5757 5756 5755 5754 5752 5751 5750 5748 5747 5745 5744 5743 5741 5741 5740 5739 5738 5737 5735 5734 5733 5732 5731 5730 5729
5777 5776 5775 5774 5773 5773 5772 5770 5770 5769 5767 5767 5765 5765 5763 5762 5761 5759 5757 5756 5755 5754 5753 5751 5749 5748 5746 5745 5743 5742 5741 5740 5739 5739 5738 5736 5735 5734 5733 5731 5730 5730 5729
5778 5776 5775 5774 5773 5773 5772 5770 5769 5767 5766 5765 5764 5764 5763 5762 5761 5759 5757 5756 5755 5754 5753 5751 5749 5747 5745 5745 5743 5742 5740 5739 5738 5737 5736 5735 5734 5733 5732 5731 5730 5729 5728
5778 5777 5775 5774 5773 5772 5771 5770 5768 5766 5764 5763 5763 5763 5762 5762 5761 5760 5758 5757 5755 5754 5753 5751 5749 5747 5746 5744 5742 5741 5739 5738 5737 5736 5735 5734 5733 5732 5731 5730 5729 5728 5728
5779 5777 5775 5774 5773 5771 5770 5768 5766 5766 5765 5764 5763 5762 5761 5761 5761 5760 5759 5757 5755 5754 5752 5750 5747 5746 5744 5743 5741 5739 5738 5737 5735 5734 5733 5732 5732 5731 5730 5729 5728 5727 5727
5779 5777 5775 5773 5772 5770 5768 5767 5765 5764 5762 5763 5759 5755 5757 5759 5759 5759 5758 5756 5754 5753 5751 5749 5746 5744 5742 5740 5739 5737 5736 5735 5734 5732 5731 5730 5730 5729 5728 5727 5727 5726 5726
5778 5776 5774 5772 5771 5769 5767 5766 5764 5762 5760 5761 5756 5750 5745 5747 5752 5756 5755 5753 5752 5750 5749 5747 5745 5743 5741 5739 5737 5735 5734 5733 5732 5731 5730 5728 5727 5727 5726 5725 5725 5725 5724
5777 5775 5773 5772 5770 5768 5766 5765 5764 5761 5757 5758 5758 5751 5742 5737 5741 5747 5749 5750 5749 5747 5746 5744 5742 5741 5739 5737 5736 5734 5732 5731 5730 5729 5728 5727 5725 5724 5724 5723 5723 5723 5723
5776 5775 5773 5771 5769 5767 5765 5764 5763 5761 5757 5753 5754 5754 5752 5747 5739 5736 5741 5744 5745 5744 5742 5742 5740 5738 5737 5735 5733 5732 5731 5729 5728 5727 5726 5725 5724 5723 5722 5721 5720 5720 5720
5775 5773 5771 5770 5768 5766 5764 5762 5760 5759 5756 5753 5751 5750 5748 5746 5743 5736 5731 5735 5738 5740 5740 5739 5738 5736 5734 5732 5731 5730 5729 5728 5727 5725 5724 5723 5722 5720 5719 5719 5718 5718 5718
5771 5771 5770 5768 5766 5763 5761 5760 5758 5756 5754 5752 5750 5748 5745 5741 5738 5735 5731 5730 5730 5734 5736 5736 5735 5733 5731 5730 5729 5728 5726 5725 5723 5722 5720 5720 5719 5717 5716 5716 5715 5715 5715
5768 5768 5767 5765 5763 5761 5759 5757 5755 5753 5751 5749 5747 5746 5744 5742 5740 5737 5731 5727 5726 5728 5731 5732 5732 5730 5729 5727 5726 5725 5723 5722 5720 5718 5717 5716 5715 5714 5714 5713 5712 5711 5711
5767 5766 5765 5763 5761 5759 5756 5754 5752 5750 5748 5746 5745 5743 5742 5740 5738 5736 5731 5726 5720 5720 5722 5725 5728 5727 5726 5724 5723 5722 5720 5719 5717 5715 5713 5712 5711 5711 5710 5710 5709 5708 5708
5767 5765 5762 5760 5758 5756 5754 5751 5748 5746 5745 5743 5742 5740 5738 5737 5736 5734 5731 5727 5720 5713 5713 5718 5720 5723 5722 5721 5720 5718 5717 5715 5713 5711 5710 5709 5708 5708 5707 5707 5706 5705 5704
5765 5762 5759 5757 5754 5752 5750 5747 5745 5743 5741 5740 5738 5736 5734 5733 5732 5730 5728 5725 5722 5716 5710 5714 5716 5718 5718 5717 5716 5715 5714 5712 5710 5708 5707 5706 5705 5705 5704 5703 5702 5701 5700
5762 5759 5756 5754 5750 5748 5746 5744 5741 5739 5737 5735 5734 5732 5730 5729 5727 5726 5724 5721 5718 5714 5708 5710 5712 5714 5713 5712 5711 5711 5710 5708 5707 5705 5704 5703 5702 5701 5700 5699 5698 5697 5696
5759 5756 5753 5750 5747 5745 5742 5740 5737 5735 5732 5730 5729 5727 5726 5725 5722 5721 5718 5716 5713 5711 5707 5703 5705 5706 5706 5706 5706 5705 5705 5705 5703 5702 5701 5699 5698 5697 5696 5695 5694 5693 5693
5756 5753 5750 5747 5744 5741 5738 5737 5734 5732 5729 5727 5725 5723 5721 5720 5717 5715 5714 5711 5709 5708 5704 5700 5699 5699 5699 5699 5698 5698 5698 5698 5698 5697 5696 5694 5693 5693 5692 5691 5690 5690 5689
5753 5750 5747 5744 5741 5739 5736 5734 5731 5728 5726 5724 5722 5720 5718 5716 5713 5711 5709 5707 5704 5701 5698 5695 5693 5692 5692 5692 5691 5689 5688 5690 5691 5692 5690 5690 5689 5688 5688 5687 5686 5686 5685
5751 5748 5744 5741 5739 5736 5734 5730 5728 5726 5722 5720 5718 5716 5715 5713 5711 5708 5706 5702 5699 5695 5692 5689 5687 5685 5685 5684 5683 5683 5681 5682 5684 5685 5684 5684 5684 5683 5683 5682 5682 5681 5681
5747 5744 5741 5738 5736 5734 5732 5729 5726 5722 5719 5716 5713 5712 5711 5709 5707 5705 5703 5700 5697 5692 5687 5683 5681 5679 5680 5680 5679 5678 5675 5673 5673 5678 5677 5677 5678 5677 5677 5677 5677 5677 5676
5743 5740 5737 5734 5732 5730 5728 5725 5723 5719 5715 5712 5709 5707 5706 5705 5701 5699 5697 5695 5692 5689 5687 5682 5678 5676 5676 5676 5674 5672 5670 5669 5669 5672 5671 5670 5671 5671 5672 5672 5672 5671 5671
5739 5736 5733 5731 5728 5726 5724 5721 5718 5714 5711 5708 5705 5703 5700 5697 5696 5693 5690 5687 5685 5684 5682 5680 5677 5676 5675 5674 5672 5670 5667 5666 5666 5666 5666 5662 5665 5665 5667 5667 5667 5666 5665
5735 5732 5729 5726 5722 5720 5718 5716 5712 5708 5705 5702 5700 5698 5695 5693 5691 5688 5684 5680 5678 5678 5678 5677 5675 5673 5672 5670 5668 5665 5662 5659 5657 5659 5660 5658 5658 5658 5659 5659 5660 5659 5658
5731 5728 5724 5721 5718 5715 5713 5709 5706 5702 5698 5695 5693 5692 5690 5688 5686 5682 5678 5674 5671 5671 5671 5671 5669 5668 5666 5665 5664 5661 5658 5654 5651 5651 5655 5653 5652 5651 5650 5652 5652 5651 5651